BOX722 VIDP-VVNB

Flight info

Callsign BOX722
Flight time 3h 55m
Altitude 37000
Route LKN7D LKN Z13 RUKNI J121 LEKIN DCT RAJ A201 LSO/N0382F230 V4 KG DCT AKSAG/K0704F230 DCT HUVAN HUVAN3J
Aircraft B77L/H-SDE1E2E3FGHIJ2J3J4J5M1RWXYZ/LB1D1

Departure

Time 2026-04-27 23:44
Airport Indira Gandhi International Airport (VIDP)

Arrival

Time 2026-04-28 03:39
Airport Noi Bai International Airport (VVNB)
Time Latitude Longitude Altitude Speed Heading
2026-04-27 23:22 28.55785 77.10111 755 ft 0 kts 194°
2026-04-27 23:34 28.55795 77.10114 750 ft 4 kts 190°
2026-04-27 23:34 28.55822 77.10116 750 ft 4 kts 175°
2026-04-27 23:34 28.55848 77.10110 750 ft 4 kts 155°
2026-04-27 23:34 28.55870 77.10094 750 ft 4 kts 132°
2026-04-27 23:35 28.55885 77.10069 750 ft 4 kts 111°
2026-04-27 23:35 28.55890 77.10052 750 ft 1 kts 104°
2026-04-27 23:37 28.55887 77.10062 750 ft 4 kts 104°
2026-04-27 23:38 28.55872 77.10125 753 ft 11 kts 106°
2026-04-27 23:38 28.55851 77.10214 752 ft 13 kts 105°
2026-04-27 23:38 28.55844 77.10242 752 ft 2 kts 105°
2026-04-27 23:38 28.55838 77.10266 752 ft 4 kts 105°
2026-04-27 23:39 28.55830 77.10310 753 ft 6 kts 92°
2026-04-27 23:39 28.55864 77.10340 754 ft 7 kts 16°
2026-04-27 23:39 28.55922 77.10359 753 ft 10 kts 16°
2026-04-27 23:39 28.55993 77.10383 752 ft 12 kts 15°
2026-04-27 23:40 28.56070 77.10421 753 ft 13 kts 48°
2026-04-27 23:40 28.56066 77.10518 754 ft 14 kts 105°
2026-04-27 23:40 28.56041 77.10630 753 ft 15 kts 104°
2026-04-27 23:40 28.56012 77.10756 754 ft 18 kts 105°
2026-04-27 23:41 28.55980 77.10899 751 ft 19 kts 103°
2026-04-27 23:41 28.55947 77.11043 751 ft 19 kts 105°
2026-04-27 23:41 28.55914 77.11189 754 ft 19 kts 104°
2026-04-27 23:41 28.55879 77.11345 754 ft 21 kts 105°
2026-04-27 23:42 28.55840 77.11509 754 ft 21 kts 105°
2026-04-27 23:42 28.55804 77.11666 752 ft 18 kts 104°
2026-04-27 23:42 28.55772 77.11805 753 ft 18 kts 105°
2026-04-27 23:42 28.55739 77.11944 755 ft 18 kts 105°
2026-04-27 23:43 28.55706 77.12083 752 ft 18 kts 105°
2026-04-27 23:43 28.55751 77.12201 753 ft 19 kts 24°
2026-04-27 23:43 28.55870 77.12192 754 ft 19 kts 312°
2026-04-27 23:43 28.55904 77.12045 754 ft 27 kts 280°
2026-04-27 23:44 28.56065 77.11327 752 ft 169 kts 284°
2026-04-27 23:44 28.56413 77.09758 1799 ft 218 kts 285°
2026-04-27 23:44 28.56798 77.08112 3334 ft 218 kts 287°
2026-04-27 23:44 28.57237 77.06366 3995 ft 245 kts 289°
2026-04-27 23:45 28.57707 77.04417 4870 ft 261 kts 287°
2026-04-27 23:45 28.58159 77.02401 6051 ft 266 kts 286°
2026-04-27 23:45 28.58618 77.00341 7214 ft 271 kts 285°
2026-04-27 23:45 28.59071 76.98319 8040 ft 276 kts 285°
2026-04-27 23:46 28.59550 76.96194 8595 ft 279 kts 285°
2026-04-27 23:46 28.60038 76.94037 8691 ft 283 kts 285°
2026-04-27 23:46 28.60526 76.91876 8693 ft 281 kts 285°
2026-04-27 23:46 28.61004 76.89730 8695 ft 277 kts 282°
2026-04-27 23:47 28.60983 76.87544 8695 ft 284 kts 256°
2026-04-27 23:47 28.60081 76.85526 8700 ft 291 kts 233°
2026-04-27 23:47 28.58516 76.84078 8690 ft 294 kts 211°
2026-04-27 23:47 28.56564 76.83422 8686 ft 295 kts 187°
2026-04-27 23:48 28.54496 76.83421 8700 ft 300 kts 182°
2026-04-27 23:48 28.52391 76.83486 8705 ft 305 kts 181°
2026-04-27 23:48 28.50260 76.83555 8697 ft 305 kts 181°
2026-04-27 23:48 28.48150 76.83617 8695 ft 301 kts 182°
2026-04-27 23:49 28.46067 76.83668 8692 ft 299 kts 182°
2026-04-27 23:49 28.43984 76.83711 8697 ft 300 kts 182°
2026-04-27 23:49 28.41899 76.83749 8700 ft 300 kts 182°
2026-04-27 23:49 28.39809 76.83786 8701 ft 300 kts 182°
2026-04-27 23:50 28.37713 76.83860 8787 ft 303 kts 179°
2026-04-27 23:50 28.35608 76.84050 9723 ft 306 kts 179°
2026-04-27 23:50 28.33450 76.84253 10645 ft 322 kts 179°
2026-04-27 23:50 28.31106 76.84464 11088 ft 353 kts 178°
2026-04-27 23:51 28.28650 76.85256 11695 ft 382 kts 154°
2026-04-27 23:51 28.26609 76.87202 13059 ft 391 kts 129°
2026-04-27 23:51 28.25317 76.89909 14334 ft 392 kts 113°
2026-04-27 23:51 28.24298 76.92816 15375 ft 402 kts 112°
2026-04-27 23:52 28.23287 76.95806 16534 ft 409 kts 112°
2026-04-27 23:52 28.22256 76.98829 17772 ft 414 kts 112°
2026-04-27 23:52 28.21193 77.01881 18839 ft 419 kts 112°
2026-04-27 23:52 28.20094 77.04980 19808 ft 427 kts 113°
2026-04-27 23:53 28.18965 77.08127 20759 ft 435 kts 113°
2026-04-27 23:53 28.17810 77.11329 21706 ft 442 kts 113°
2026-04-27 23:53 28.16650 77.14538 22621 ft 449 kts 114°
2026-04-27 23:53 28.15326 77.17775 23491 ft 456 kts 118°
2026-04-27 23:54 28.13835 77.20973 24260 ft 462 kts 120°
2026-04-27 23:54 28.12277 77.24190 25079 ft 468 kts 120°
2026-04-27 23:54 28.10708 77.27440 25874 ft 474 kts 120°
2026-04-27 23:54 28.09135 77.30753 26669 ft 480 kts 120°
2026-04-27 23:55 28.07565 77.34113 27451 ft 486 kts 120°
2026-04-27 23:55 28.05981 77.37525 28223 ft 492 kts 120°
2026-04-27 23:55 28.04379 77.40976 29009 ft 498 kts 120°
2026-04-27 23:55 28.02759 77.44455 29749 ft 504 kts 120°
2026-04-27 23:56 28.01114 77.47982 30373 ft 509 kts 120°
2026-04-27 23:56 27.99455 77.51533 31004 ft 513 kts 120°
2026-04-27 23:56 27.97787 77.55115 31635 ft 516 kts 118°
2026-04-27 23:56 27.96406 77.58870 32179 ft 521 kts 108°
2026-04-27 23:57 27.95439 77.62828 32808 ft 522 kts 104°
2026-04-27 23:57 27.94610 77.66813 33574 ft 520 kts 103°
2026-04-27 23:57 27.93809 77.70786 34290 ft 516 kts 103°
2026-04-27 23:57 27.92983 77.74731 34855 ft 517 kts 104°
2026-04-27 23:58 27.92112 77.78687 35355 ft 518 kts 104°
2026-04-27 23:58 27.91208 77.82635 35847 ft 520 kts 105°
2026-04-27 23:58 27.90285 77.86580 36387 ft 520 kts 105°
2026-04-27 23:58 27.89352 77.90533 36940 ft 520 kts 105°
2026-04-27 23:59 27.88420 77.94481 37486 ft 520 kts 105°
2026-04-27 23:59 27.87492 77.98423 38044 ft 519 kts 105°
2026-04-27 23:59 27.86597 78.02232 38606 ft 516 kts 105°
2026-04-27 23:59 27.85676 78.06152 39061 ft 515 kts 105°
2026-04-28 00:00 27.84757 78.10065 39482 ft 515 kts 105°
2026-04-28 00:00 27.83835 78.13979 39892 ft 515 kts 105°
2026-04-28 00:00 27.82912 78.17882 40331 ft 514 kts 106°
2026-04-28 00:00 27.81833 78.21734 40705 ft 515 kts 110°
2026-04-28 00:01 27.79217 78.29334 40685 ft 519 kts 113°
2026-04-28 00:01 27.76497 78.36836 40669 ft 512 kts 112°
2026-04-28 00:02 27.73876 78.44298 40684 ft 511 kts 112°
2026-04-28 00:02 27.71311 78.51770 40687 ft 511 kts 111°
2026-04-28 00:03 27.68768 78.59202 40668 ft 511 kts 111°
2026-04-28 00:03 27.66195 78.66689 40685 ft 512 kts 112°
2026-04-28 00:04 27.62316 78.77924 40675 ft 513 kts 112°
2026-04-28 00:05 27.59719 78.85426 40681 ft 514 kts 112°
2026-04-28 00:05 27.57116 78.92934 40681 ft 514 kts 112°
2026-04-28 00:06 27.54550 79.00317 40672 ft 514 kts 112°
2026-04-28 00:06 27.51938 79.07820 40667 ft 514 kts 112°
2026-04-28 00:07 27.49325 79.15310 40663 ft 514 kts 112°
2026-04-28 00:07 27.46704 79.22809 40679 ft 514 kts 112°
2026-04-28 00:08 27.44081 79.30296 40667 ft 514 kts 112°
2026-04-28 00:08 27.41457 79.37774 40667 ft 514 kts 112°
2026-04-28 00:09 27.38828 79.45253 40681 ft 514 kts 112°
2026-04-28 00:09 27.36165 79.52705 40665 ft 513 kts 114°
2026-04-28 00:10 27.33100 79.59948 40683 ft 512 kts 117°
2026-04-28 00:10 27.29881 79.67101 40680 ft 512 kts 117°
2026-04-28 00:11 27.26700 79.74268 40687 ft 512 kts 117°
2026-04-28 00:11 27.23562 79.81449 40691 ft 512 kts 117°
2026-04-28 00:12 27.20433 79.88637 40676 ft 512 kts 117°
2026-04-28 00:12 27.17320 79.95770 40694 ft 512 kts 117°
2026-04-28 00:13 27.14230 80.02828 40695 ft 511 kts 117°
2026-04-28 00:13 27.11091 80.09983 40675 ft 511 kts 117°
2026-04-28 00:14 27.07950 80.17133 40689 ft 510 kts 117°
2026-04-28 00:14 27.05337 80.23070 40694 ft 510 kts 117°
2026-04-28 00:15 27.02195 80.30199 40689 ft 510 kts 117°
2026-04-28 00:15 26.99049 80.37324 40700 ft 510 kts 117°
2026-04-28 00:16 26.95896 80.44455 40703 ft 510 kts 117°
2026-04-28 00:16 26.92738 80.51583 40698 ft 511 kts 117°
2026-04-28 00:17 26.89579 80.58703 40707 ft 511 kts 117°
2026-04-28 00:17 26.86412 80.65827 40695 ft 511 kts 117°
2026-04-28 00:18 26.83243 80.72946 40691 ft 510 kts 117°
2026-04-28 00:18 26.80072 80.80058 40696 ft 510 kts 117°
2026-04-28 00:19 26.76898 80.87166 40689 ft 511 kts 117°
2026-04-28 00:19 26.75514 80.90814 40676 ft 511 kts 105°
2026-04-28 00:19 26.74774 80.94688 40710 ft 509 kts 100°
2026-04-28 00:20 26.73680 81.02371 40692 ft 510 kts 98°
2026-04-28 00:20 26.72586 81.10214 40702 ft 511 kts 99°
2026-04-28 00:21 26.71397 81.18041 40712 ft 511 kts 99°
2026-04-28 00:21 26.70150 81.25871 40711 ft 511 kts 100°
2026-04-28 00:22 26.68890 81.33703 40709 ft 511 kts 100°
2026-04-28 00:22 26.67632 81.41530 40709 ft 511 kts 100°
2026-04-28 00:23 26.66376 81.49344 40715 ft 511 kts 100°
2026-04-28 00:23 26.65116 81.57157 40709 ft 510 kts 100°
2026-04-28 00:24 26.63861 81.64912 40711 ft 510 kts 100°
2026-04-28 00:24 26.62585 81.72760 40703 ft 510 kts 100°
2026-04-28 00:25 26.61316 81.80547 40710 ft 509 kts 100°
2026-04-28 00:25 26.60052 81.88269 40716 ft 509 kts 100°
2026-04-28 00:26 26.58773 81.96053 40715 ft 509 kts 100°
2026-04-28 00:26 26.57511 82.03713 40715 ft 510 kts 100°
2026-04-28 00:27 26.56223 82.11501 40717 ft 510 kts 100°
2026-04-28 00:27 26.54930 82.19289 40718 ft 510 kts 100°
2026-04-28 00:28 26.53634 82.27071 40714 ft 510 kts 100°
2026-04-28 00:28 26.52332 82.34861 40711 ft 510 kts 100°
2026-04-28 00:29 26.51026 82.42651 40718 ft 510 kts 100°
2026-04-28 00:29 26.49715 82.50439 40712 ft 510 kts 100°
2026-04-28 00:30 26.48402 82.58217 40709 ft 510 kts 100°
2026-04-28 00:30 26.47083 82.65997 40716 ft 510 kts 100°
2026-04-28 00:31 26.45761 82.73776 40715 ft 510 kts 100°
2026-04-28 00:31 26.44434 82.81551 40719 ft 510 kts 101°
2026-04-28 00:32 26.43105 82.89318 40713 ft 510 kts 101°
2026-04-28 00:32 26.41770 82.97089 40717 ft 510 kts 101°
2026-04-28 00:33 26.40452 83.04737 40713 ft 510 kts 101°
2026-04-28 00:33 26.39109 83.12502 40706 ft 510 kts 101°
2026-04-28 00:34 26.37762 83.20265 40715 ft 510 kts 101°
2026-04-28 00:34 26.36413 83.28015 40715 ft 510 kts 101°
2026-04-28 00:35 26.35057 83.35776 40718 ft 510 kts 101°
2026-04-28 00:35 26.33698 83.43536 40715 ft 510 kts 101°
2026-04-28 00:36 26.32333 83.51300 40712 ft 510 kts 101°
2026-04-28 00:36 26.30966 83.59050 40722 ft 510 kts 101°
2026-04-28 00:37 26.29593 83.66807 40717 ft 510 kts 101°
2026-04-28 00:37 26.28217 83.74560 40718 ft 510 kts 101°
2026-04-28 00:38 26.26837 83.82309 40717 ft 510 kts 101°
2026-04-28 00:38 26.25470 83.90047 40717 ft 509 kts 100°
2026-04-28 00:39 26.24194 83.97809 40712 ft 509 kts 99°
2026-04-28 00:39 26.22958 84.05450 40710 ft 509 kts 100°
2026-04-28 00:40 26.21688 84.13201 40715 ft 509 kts 100°
2026-04-28 00:40 26.20405 84.20948 40713 ft 509 kts 100°
2026-04-28 00:41 26.19115 84.28689 40721 ft 508 kts 100°
2026-04-28 00:41 26.17824 84.36420 40720 ft 508 kts 100°
2026-04-28 00:42 26.16527 84.44162 40728 ft 508 kts 100°
2026-04-28 00:42 26.15227 84.51899 40711 ft 509 kts 100°
2026-04-28 00:43 26.13923 84.59634 40720 ft 508 kts 100°
2026-04-28 00:43 26.12616 84.67359 40733 ft 508 kts 100°
2026-04-28 00:44 26.11303 84.75093 40729 ft 509 kts 100°
2026-04-28 00:44 26.09985 84.82830 40737 ft 509 kts 100°
2026-04-28 00:45 26.08672 84.90513 40733 ft 509 kts 100°
2026-04-28 00:45 26.07348 84.98240 40743 ft 509 kts 100°
2026-04-28 00:46 26.06039 85.05852 40750 ft 509 kts 100°
2026-04-28 00:46 26.04755 85.13593 40738 ft 509 kts 99°
2026-04-28 00:47 26.03503 85.21339 40734 ft 509 kts 99°
2026-04-28 00:47 26.02243 85.29081 40735 ft 509 kts 99°
2026-04-28 00:48 26.00972 85.36818 40734 ft 509 kts 99°
2026-04-28 00:48 25.99696 85.44537 40738 ft 509 kts 99°
2026-04-28 00:49 25.98414 85.52272 40733 ft 509 kts 99°
2026-04-28 00:49 25.97128 85.60004 40730 ft 509 kts 99°
2026-04-28 00:50 25.95839 85.67732 40730 ft 509 kts 99°
2026-04-28 00:50 25.94546 85.75458 40717 ft 508 kts 99°
2026-04-28 00:51 25.93249 85.83181 40718 ft 508 kts 99°
2026-04-28 00:51 25.91947 85.90902 40722 ft 508 kts 99°
2026-04-28 00:52 25.90643 85.98613 40724 ft 508 kts 99°
2026-04-28 00:52 25.89354 86.06212 40708 ft 508 kts 100°
2026-04-28 00:53 25.88042 86.13923 40720 ft 508 kts 100°
2026-04-28 00:53 25.86726 86.21628 40728 ft 508 kts 99°
2026-04-28 00:54 25.85407 86.29330 40723 ft 508 kts 100°
2026-04-28 00:54 25.84084 86.37028 40722 ft 507 kts 100°
2026-04-28 00:55 25.83047 86.44751 40724 ft 506 kts 94°
2026-04-28 00:55 25.82530 86.52535 40730 ft 506 kts 92°
2026-04-28 00:56 25.82044 86.60324 40736 ft 506 kts 92°
2026-04-28 00:56 25.81518 86.68115 40730 ft 506 kts 93°
2026-04-28 00:57 25.80969 86.75854 40732 ft 506 kts 93°
2026-04-28 00:57 25.80406 86.83699 40734 ft 507 kts 93°
2026-04-28 00:58 25.79846 86.91485 40734 ft 507 kts 93°
2026-04-28 00:58 25.79281 86.99284 40734 ft 507 kts 93°
2026-04-28 00:59 25.78726 87.06910 40735 ft 507 kts 93°
2026-04-28 00:59 25.78154 87.14702 40738 ft 507 kts 93°
2026-04-28 01:00 25.77576 87.22508 40737 ft 507 kts 93°
2026-04-28 01:00 25.77090 87.29049 40740 ft 507 kts 93°
2026-04-28 01:01 25.76328 87.36813 40731 ft 508 kts 104°
2026-04-28 01:01 25.74501 87.41570 40748 ft 508 kts 122°
2026-04-28 01:01 25.73116 87.43727 40745 ft 508 kts 131°
2026-04-28 01:01 25.70614 87.46383 40744 ft 503 kts 142°
2026-04-28 01:02 25.67896 87.48836 40745 ft 504 kts 143°
2026-04-28 01:02 25.62406 87.53714 40740 ft 507 kts 143°
2026-04-28 01:03 25.56933 87.58661 40737 ft 508 kts 142°
2026-04-28 01:03 25.51484 87.63665 40740 ft 509 kts 142°
2026-04-28 01:04 25.46043 87.68678 40737 ft 509 kts 142°
2026-04-28 01:04 25.40592 87.73691 40744 ft 509 kts 142°
2026-04-28 01:05 25.35138 87.78694 40741 ft 509 kts 142°
2026-04-28 01:05 25.29687 87.83687 40742 ft 509 kts 142°
2026-04-28 01:06 25.24240 87.88670 40744 ft 508 kts 142°
2026-04-28 01:06 25.18797 87.93644 40741 ft 508 kts 142°
2026-04-28 01:07 25.13356 87.98610 40742 ft 507 kts 142°
2026-04-28 01:07 25.08008 88.03485 40739 ft 507 kts 142°
2026-04-28 01:08 25.02571 88.08437 40738 ft 507 kts 142°
2026-04-28 01:08 24.97139 88.13377 40734 ft 506 kts 142°
2026-04-28 01:09 24.91704 88.18314 40736 ft 506 kts 142°
2026-04-28 01:09 24.86269 88.23246 40740 ft 506 kts 142°
2026-04-28 01:10 24.80838 88.28168 40742 ft 506 kts 142°
2026-04-28 01:10 24.75398 88.33093 40739 ft 506 kts 142°
2026-04-28 01:11 24.69956 88.38014 40735 ft 506 kts 142°
2026-04-28 01:11 24.64512 88.42931 40734 ft 506 kts 142°
2026-04-28 01:12 24.59069 88.47842 40732 ft 506 kts 142°
2026-04-28 01:12 24.53632 88.52743 40741 ft 506 kts 142°
2026-04-28 01:13 24.48198 88.57649 40728 ft 505 kts 140°
2026-04-28 01:13 24.43919 88.63719 40737 ft 506 kts 117°
2026-04-28 01:13 24.42580 88.67284 40730 ft 505 kts 105°
2026-04-28 01:14 24.41064 88.74790 40735 ft 504 kts 100°
2026-04-28 01:14 24.39673 88.82342 40737 ft 506 kts 101°
2026-04-28 01:15 24.38214 88.89894 40724 ft 506 kts 101°
2026-04-28 01:15 24.36704 88.97419 40735 ft 505 kts 102°
2026-04-28 01:16 24.35203 89.04814 40733 ft 504 kts 102°
2026-04-28 01:16 24.33680 89.12309 40738 ft 503 kts 102°
2026-04-28 01:17 24.32160 89.19789 40743 ft 502 kts 102°
2026-04-28 01:17 24.30641 89.27253 40747 ft 501 kts 102°
2026-04-28 01:18 24.29125 89.34681 40738 ft 499 kts 102°
2026-04-28 01:18 24.27617 89.42044 40731 ft 497 kts 102°
2026-04-28 01:19 24.26101 89.49430 40740 ft 496 kts 102°
2026-04-28 01:19 24.24585 89.56799 40735 ft 495 kts 102°
2026-04-28 01:20 24.23066 89.64161 40738 ft 495 kts 102°
2026-04-28 01:20 24.21546 89.71512 40728 ft 495 kts 102°
2026-04-28 01:21 24.20019 89.78876 40740 ft 496 kts 102°
2026-04-28 01:21 24.18487 89.86244 40743 ft 496 kts 102°
2026-04-28 01:22 24.16951 89.93617 40741 ft 497 kts 102°
2026-04-28 01:22 24.15436 90.00869 40740 ft 497 kts 103°
2026-04-28 01:23 24.13891 90.08245 40734 ft 497 kts 103°
2026-04-28 01:23 24.12344 90.15611 40739 ft 496 kts 103°
2026-04-28 01:24 24.10799 90.22953 40738 ft 495 kts 103°
2026-04-28 01:24 24.09250 90.30291 40748 ft 495 kts 103°
2026-04-28 01:25 24.07698 90.37634 40740 ft 495 kts 103°
2026-04-28 01:25 24.06140 90.44965 40738 ft 493 kts 103°
2026-04-28 01:26 24.04574 90.52255 40746 ft 491 kts 104°
2026-04-28 01:26 24.03010 90.59511 40748 ft 489 kts 104°
2026-04-28 01:27 24.01449 90.66747 40766 ft 490 kts 104°
2026-04-28 01:27 23.99882 90.73999 40744 ft 490 kts 104°
2026-04-28 01:28 23.98315 90.81238 40744 ft 489 kts 104°
2026-04-28 01:28 23.96753 90.88433 40757 ft 490 kts 104°
2026-04-28 01:29 23.95173 90.95691 40756 ft 492 kts 104°
2026-04-28 01:29 23.93608 91.02865 40756 ft 494 kts 104°
2026-04-28 01:30 23.92011 91.10172 40756 ft 495 kts 104°
2026-04-28 01:30 23.90406 91.17496 40704 ft 497 kts 104°
2026-04-28 01:31 23.88792 91.24856 40725 ft 499 kts 104°
2026-04-28 01:31 23.87271 91.32335 40727 ft 502 kts 103°
2026-04-28 01:32 23.85812 91.39804 40734 ft 504 kts 103°
2026-04-28 01:32 23.84335 91.47297 40741 ft 505 kts 103°
2026-04-28 01:33 23.82848 91.54739 40779 ft 504 kts 103°
2026-04-28 01:33 23.81345 91.62213 40773 ft 503 kts 103°
2026-04-28 01:34 23.79844 91.69657 40784 ft 501 kts 103°
2026-04-28 01:34 23.78347 91.77071 40783 ft 499 kts 103°
2026-04-28 01:35 23.76853 91.84451 40794 ft 498 kts 103°
2026-04-28 01:35 23.75347 91.91872 40794 ft 497 kts 103°
2026-04-28 01:36 23.73838 91.99284 40816 ft 510 kts 104°
2026-04-28 01:36 23.72309 92.06775 40805 ft 515 kts 103°
2026-04-28 01:37 23.70748 92.14411 40814 ft 516 kts 103°
2026-04-28 01:37 23.69184 92.22041 40815 ft 514 kts 103°
2026-04-28 01:38 23.67623 92.29635 40854 ft 513 kts 103°
2026-04-28 01:38 23.66055 92.37244 40823 ft 514 kts 103°
2026-04-28 01:39 23.64480 92.44857 40837 ft 516 kts 103°
2026-04-28 01:39 23.63151 92.51269 40830 ft 518 kts 103°
2026-04-28 01:40 23.61302 92.60189 40870 ft 519 kts 103°
2026-04-28 01:40 23.59761 92.67889 40880 ft 521 kts 102°
2026-04-28 01:41 23.58347 92.75643 40865 ft 522 kts 102°
2026-04-28 01:41 23.56938 92.83390 40889 ft 522 kts 102°
2026-04-28 01:42 23.55503 92.91144 40892 ft 521 kts 102°
2026-04-28 01:42 23.54053 92.98885 40883 ft 521 kts 102°
2026-04-28 01:43 23.52625 93.06492 40891 ft 521 kts 102°
2026-04-28 01:43 23.51173 93.14216 40904 ft 520 kts 102°
2026-04-28 01:44 23.49718 93.21934 40903 ft 520 kts 102°
2026-04-28 01:44 23.48260 93.29648 40895 ft 520 kts 102°
2026-04-28 01:45 23.46799 93.37358 40912 ft 520 kts 102°
2026-04-28 01:45 23.45581 93.43772 40910 ft 520 kts 102°
2026-04-28 01:46 23.44494 93.51551 40916 ft 520 kts 96°
2026-04-28 01:46 23.43776 93.59375 40909 ft 519 kts 96°
2026-04-28 01:47 23.43072 93.67195 40905 ft 519 kts 96°
2026-04-28 01:47 23.42333 93.75003 40904 ft 518 kts 96°
2026-04-28 01:48 23.41570 93.82809 40885 ft 518 kts 96°
2026-04-28 01:48 23.40801 93.90610 40902 ft 519 kts 96°
2026-04-28 01:49 23.40027 93.98424 40865 ft 519 kts 96°
2026-04-28 01:49 23.39266 94.06098 40863 ft 520 kts 96°
2026-04-28 01:50 23.38486 94.13919 40837 ft 520 kts 96°
2026-04-28 01:50 23.37703 94.21736 40846 ft 520 kts 96°
2026-04-28 01:51 23.36915 94.29556 40815 ft 519 kts 96°
2026-04-28 01:51 23.36126 94.37371 40818 ft 520 kts 96°
2026-04-28 01:52 23.35329 94.45191 40833 ft 520 kts 96°
2026-04-28 01:52 23.34527 94.53019 40824 ft 521 kts 96°
2026-04-28 01:53 23.33723 94.60845 40827 ft 520 kts 96°
2026-04-28 01:53 23.32916 94.68658 40819 ft 519 kts 96°
2026-04-28 01:54 23.32108 94.76442 40824 ft 517 kts 96°
2026-04-28 01:54 23.31298 94.84210 40824 ft 516 kts 96°
2026-04-28 01:55 23.30491 94.91909 40839 ft 515 kts 96°
2026-04-28 01:55 23.29677 94.99647 40845 ft 514 kts 97°
2026-04-28 01:56 23.28874 95.07234 40822 ft 513 kts 97°
2026-04-28 01:56 23.28056 95.14931 40832 ft 512 kts 97°
2026-04-28 01:57 23.27236 95.22614 40827 ft 511 kts 97°
2026-04-28 01:57 23.26412 95.30288 40838 ft 511 kts 97°
2026-04-28 01:58 23.25585 95.37951 40838 ft 510 kts 97°
2026-04-28 01:58 23.24756 95.45614 40831 ft 510 kts 97°
2026-04-28 01:59 23.23923 95.53271 40828 ft 510 kts 97°
2026-04-28 01:59 23.23087 95.60922 40833 ft 509 kts 97°
2026-04-28 02:00 23.22247 95.68569 40837 ft 509 kts 97°
2026-04-28 02:00 23.21404 95.76219 40830 ft 510 kts 97°
2026-04-28 02:01 23.20557 95.83858 40846 ft 509 kts 97°
2026-04-28 02:01 23.19706 95.91503 40841 ft 509 kts 97°
2026-04-28 02:02 23.18852 95.99150 40830 ft 509 kts 97°
2026-04-28 02:02 23.18008 96.06663 40848 ft 509 kts 97°
2026-04-28 02:03 23.17146 96.14309 40857 ft 510 kts 97°
2026-04-28 02:03 23.16285 96.21916 40856 ft 511 kts 97°
2026-04-28 02:04 23.15412 96.29590 40854 ft 512 kts 97°
2026-04-28 02:04 23.14534 96.37267 40857 ft 512 kts 97°
2026-04-28 02:05 23.13653 96.44946 40860 ft 513 kts 97°
2026-04-28 02:05 23.12767 96.52632 40863 ft 513 kts 97°
2026-04-28 02:06 23.11878 96.60317 40870 ft 512 kts 97°
2026-04-28 02:06 23.10985 96.67998 40855 ft 512 kts 97°
2026-04-28 02:07 23.10090 96.75665 40878 ft 512 kts 97°
2026-04-28 02:07 23.09190 96.83336 40858 ft 512 kts 97°
2026-04-28 02:08 23.08288 96.90997 40881 ft 510 kts 97°
2026-04-28 02:08 23.07385 96.98636 40896 ft 509 kts 97°
2026-04-28 02:09 23.06495 97.06135 40906 ft 509 kts 97°
2026-04-28 02:09 23.05587 97.13751 40908 ft 508 kts 97°
2026-04-28 02:10 23.04676 97.21359 40907 ft 508 kts 97°
2026-04-28 02:10 23.03763 97.28954 40910 ft 507 kts 98°
2026-04-28 02:11 23.02846 97.36548 40907 ft 507 kts 98°
2026-04-28 02:11 23.01927 97.44136 40889 ft 508 kts 98°
2026-04-28 02:12 23.01002 97.51739 40914 ft 508 kts 98°
2026-04-28 02:12 23.00073 97.59349 40900 ft 509 kts 98°
2026-04-28 02:13 22.99142 97.66937 40902 ft 509 kts 97°
2026-04-28 02:13 22.97474 97.74340 40905 ft 505 kts 115°
2026-04-28 02:14 22.93709 97.80689 40902 ft 499 kts 135°
2026-04-28 02:14 22.88889 97.86102 40891 ft 499 kts 137°
2026-04-28 02:15 22.81589 97.94176 40911 ft 500 kts 136°
2026-04-28 02:16 22.76768 97.99614 40904 ft 501 kts 136°
2026-04-28 02:16 22.72024 98.04998 40915 ft 502 kts 136°
2026-04-28 02:17 22.67199 98.10470 40918 ft 502 kts 136°
2026-04-28 02:17 22.62370 98.15934 40911 ft 502 kts 136°
2026-04-28 02:18 22.57543 98.21388 40922 ft 502 kts 136°
2026-04-28 02:18 22.52717 98.26836 40923 ft 501 kts 136°
2026-04-28 02:19 22.47896 98.32270 40912 ft 500 kts 136°
2026-04-28 02:19 22.43091 98.37681 40917 ft 499 kts 136°
2026-04-28 02:20 22.38282 98.43091 40920 ft 499 kts 136°
2026-04-28 02:20 22.33473 98.48495 40915 ft 499 kts 136°
2026-04-28 02:21 22.28666 98.53891 40923 ft 499 kts 136°
2026-04-28 02:21 22.23882 98.59255 40921 ft 499 kts 136°
2026-04-28 02:22 22.19063 98.64654 40910 ft 499 kts 136°
2026-04-28 02:22 22.14245 98.70045 40928 ft 499 kts 136°
2026-04-28 02:23 22.09426 98.75433 40917 ft 500 kts 136°
2026-04-28 02:23 22.04591 98.80831 40918 ft 500 kts 136°
2026-04-28 02:24 21.99762 98.86218 40927 ft 501 kts 136°
2026-04-28 02:24 21.94924 98.91609 40928 ft 501 kts 136°
2026-04-28 02:25 21.90074 98.97008 40927 ft 501 kts 136°
2026-04-28 02:25 21.85297 99.02320 40921 ft 501 kts 136°
2026-04-28 02:26 21.80451 99.07704 40936 ft 501 kts 136°
2026-04-28 02:26 21.75601 99.13086 40935 ft 501 kts 136°
2026-04-28 02:27 21.70755 99.18459 40930 ft 500 kts 136°
2026-04-28 02:27 21.65909 99.23825 40933 ft 500 kts 136°
2026-04-28 02:28 21.61070 99.29179 40946 ft 499 kts 136°
2026-04-28 02:28 21.56227 99.34531 40942 ft 499 kts 136°
2026-04-28 02:29 21.51387 99.39875 40929 ft 499 kts 136°
2026-04-28 02:29 21.46545 99.45217 40931 ft 499 kts 136°
2026-04-28 02:30 21.41704 99.50551 40929 ft 498 kts 136°
2026-04-28 02:30 21.36868 99.55876 40939 ft 498 kts 136°
2026-04-28 02:31 21.32049 99.61206 40937 ft 498 kts 134°
2026-04-28 02:31 21.28472 99.66061 40934 ft 501 kts 124°
2026-04-28 02:32 21.24811 99.72416 40940 ft 501 kts 123°
2026-04-28 02:32 21.21197 99.78797 40937 ft 501 kts 123°
2026-04-28 02:33 21.17542 99.85164 40918 ft 501 kts 123°
2026-04-28 02:33 21.13867 99.91507 40931 ft 500 kts 123°
2026-04-28 02:34 21.10192 99.97831 40939 ft 500 kts 123°
2026-04-28 02:34 21.06571 100.04061 40935 ft 500 kts 123°
2026-04-28 02:35 21.02893 100.10386 40935 ft 500 kts 123°
2026-04-28 02:35 20.99228 100.16683 40936 ft 500 kts 124°
2026-04-28 02:36 20.95554 100.22988 40940 ft 499 kts 124°
2026-04-28 02:36 20.91875 100.29293 40938 ft 500 kts 124°
2026-04-28 02:37 20.88194 100.35597 40930 ft 499 kts 124°
2026-04-28 02:37 20.84525 100.41899 40933 ft 498 kts 121°
2026-04-28 02:37 20.83096 100.45279 40929 ft 501 kts 109°
2026-04-28 02:38 20.82302 100.48900 40945 ft 502 kts 98°
2026-04-28 02:38 20.82101 100.52621 40934 ft 502 kts 86°
2026-04-28 02:38 20.82417 100.56329 40956 ft 501 kts 83°
2026-04-28 02:39 20.83241 100.63734 40944 ft 503 kts 83°
2026-04-28 02:39 20.84052 100.71124 40954 ft 505 kts 83°
2026-04-28 02:40 20.84803 100.78597 40959 ft 506 kts 84°
2026-04-28 02:40 20.85520 100.86090 40956 ft 507 kts 84°
2026-04-28 02:41 20.86229 100.93591 40960 ft 508 kts 84°
2026-04-28 02:41 20.86929 101.00986 40970 ft 508 kts 84°
2026-04-28 02:42 20.87638 101.08497 40961 ft 507 kts 84°
2026-04-28 02:42 20.88344 101.16000 40965 ft 507 kts 84°
2026-04-28 02:43 20.89045 101.23484 40959 ft 506 kts 84°
2026-04-28 02:43 20.89743 101.30961 40986 ft 505 kts 84°
2026-04-28 02:44 20.90436 101.38437 41001 ft 505 kts 84°
2026-04-28 02:44 20.91126 101.45910 40991 ft 505 kts 84°
2026-04-28 02:45 20.91814 101.53399 40988 ft 506 kts 85°
2026-04-28 02:45 20.92498 101.60880 40973 ft 506 kts 84°
2026-04-28 02:46 20.93180 101.68373 40962 ft 506 kts 85°
2026-04-28 02:46 20.93859 101.75870 40942 ft 507 kts 85°
2026-04-28 02:47 20.94536 101.83379 40940 ft 507 kts 85°
2026-04-28 02:47 20.95209 101.90886 40931 ft 508 kts 85°
2026-04-28 02:48 20.95880 101.98408 40929 ft 508 kts 85°
2026-04-28 02:48 20.96537 102.05814 40915 ft 508 kts 85°
2026-04-28 02:49 20.97202 102.13342 40930 ft 508 kts 85°
2026-04-28 02:49 20.97859 102.20823 40920 ft 509 kts 85°
2026-04-28 02:50 20.98522 102.28403 40918 ft 509 kts 85°
2026-04-28 02:50 20.99174 102.35900 40903 ft 510 kts 85°
2026-04-28 02:51 20.99828 102.43455 40903 ft 510 kts 85°
2026-04-28 02:51 21.00479 102.51003 40887 ft 510 kts 85°
2026-04-28 02:52 21.01125 102.58558 40904 ft 509 kts 85°
2026-04-28 02:52 21.01767 102.66102 40883 ft 509 kts 85°
2026-04-28 02:53 21.02406 102.73637 40885 ft 508 kts 85°
2026-04-28 02:53 21.03041 102.81166 40877 ft 508 kts 85°
2026-04-28 02:54 21.03672 102.88689 40886 ft 508 kts 85°
2026-04-28 02:54 21.04300 102.96225 40886 ft 508 kts 86°
2026-04-28 02:55 21.04916 103.03653 40881 ft 509 kts 86°
2026-04-28 02:55 21.05539 103.11198 40894 ft 509 kts 86°
2026-04-28 02:56 21.06159 103.18748 40889 ft 510 kts 86°
2026-04-28 02:56 21.06777 103.26320 40889 ft 511 kts 86°
2026-04-28 02:57 21.07392 103.33894 40890 ft 511 kts 86°
2026-04-28 02:57 21.08004 103.41481 40887 ft 512 kts 86°
2026-04-28 02:58 21.08613 103.49073 40879 ft 512 kts 86°
2026-04-28 02:58 21.08919 103.52903 40149 ft 521 kts 86°
2026-04-28 02:58 21.09227 103.56767 39443 ft 520 kts 87°
2026-04-28 02:58 21.09534 103.60621 38701 ft 519 kts 87°
2026-04-28 02:59 21.09839 103.64470 37802 ft 520 kts 87°
2026-04-28 02:59 21.10144 103.68330 36935 ft 520 kts 87°
2026-04-28 02:59 21.10446 103.72188 36080 ft 520 kts 87°
2026-04-28 02:59 21.10749 103.76052 35167 ft 522 kts 87°
2026-04-28 03:00 21.11053 103.79937 34331 ft 523 kts 87°
2026-04-28 03:00 21.11352 103.83751 33662 ft 519 kts 88°
2026-04-28 03:00 21.11656 103.87640 32907 ft 515 kts 87°
2026-04-28 03:00 21.11949 103.91394 32270 ft 510 kts 87°
2026-04-28 03:01 21.12241 103.95170 31619 ft 507 kts 87°
2026-04-28 03:01 21.12534 103.98968 30975 ft 503 kts 87°
2026-04-28 03:01 21.12807 104.02514 30360 ft 499 kts 87°
2026-04-28 03:01 21.13090 104.06201 29688 ft 495 kts 87°
2026-04-28 03:02 21.13371 104.09859 28968 ft 490 kts 87°
2026-04-28 03:02 21.13647 104.13483 28302 ft 486 kts 86°
2026-04-28 03:02 21.13919 104.17073 27658 ft 481 kts 86°
2026-04-28 03:02 21.14188 104.20625 27045 ft 476 kts 86°
2026-04-28 03:03 21.14454 104.24135 26436 ft 471 kts 86°
2026-04-28 03:03 21.14716 104.27617 25841 ft 467 kts 86°
2026-04-28 03:03 21.14976 104.31066 25228 ft 462 kts 86°
2026-04-28 03:03 21.15235 104.34478 24662 ft 457 kts 86°
2026-04-28 03:04 21.15485 104.37854 24051 ft 454 kts 85°
2026-04-28 03:04 21.15734 104.41210 23478 ft 450 kts 86°
2026-04-28 03:04 21.15981 104.44537 22832 ft 446 kts 85°
2026-04-28 03:04 21.16226 104.47829 22235 ft 441 kts 85°
2026-04-28 03:05 21.16465 104.51081 21625 ft 434 kts 86°
2026-04-28 03:05 21.16698 104.54282 21123 ft 428 kts 85°
2026-04-28 03:05 21.16934 104.57452 20571 ft 425 kts 85°
2026-04-28 03:05 21.17170 104.60588 19999 ft 421 kts 85°
2026-04-28 03:06 21.17399 104.63697 19488 ft 416 kts 85°
2026-04-28 03:06 21.17623 104.66780 18937 ft 414 kts 85°
2026-04-28 03:06 21.17846 104.69852 18384 ft 413 kts 85°
2026-04-28 03:06 21.18067 104.72911 17799 ft 411 kts 85°
2026-04-28 03:07 21.18288 104.75947 17232 ft 408 kts 85°
2026-04-28 03:07 21.18507 104.78966 16664 ft 404 kts 85°
2026-04-28 03:07 21.18722 104.81957 16140 ft 401 kts 85°
2026-04-28 03:07 21.18936 104.84929 15605 ft 399 kts 85°
2026-04-28 03:08 21.19149 104.87889 15087 ft 398 kts 85°
2026-04-28 03:08 21.19361 104.90836 14522 ft 397 kts 85°
2026-04-28 03:08 21.19572 104.93780 13979 ft 395 kts 85°
2026-04-28 03:08 21.19781 104.96709 13424 ft 393 kts 85°
2026-04-28 03:09 21.19990 104.99622 12841 ft 390 kts 85°
2026-04-28 03:09 21.20179 105.02300 12327 ft 357 kts 85°
2026-04-28 03:09 21.20356 105.04843 11861 ft 330 kts 85°
2026-04-28 03:09 21.20528 105.07296 11457 ft 332 kts 86°
2026-04-28 03:10 21.20298 105.09735 11055 ft 338 kts 109°
2026-04-28 03:10 21.19157 105.11884 10821 ft 314 kts 135°
2026-04-28 03:10 21.17492 105.13390 10848 ft 321 kts 150°
2026-04-28 03:10 21.15616 105.14649 10833 ft 315 kts 152°
2026-04-28 03:11 21.13755 105.15837 10832 ft 309 kts 153°
2026-04-28 03:11 21.11918 105.17007 10835 ft 306 kts 153°
2026-04-28 03:11 21.10084 105.18186 10843 ft 308 kts 152°
2026-04-28 03:11 21.08247 105.19380 10850 ft 310 kts 152°
2026-04-28 03:12 21.06410 105.20584 10839 ft 310 kts 152°
2026-04-28 03:12 21.04571 105.21794 10848 ft 310 kts 152°
2026-04-28 03:12 21.02730 105.23005 10835 ft 311 kts 152°
2026-04-28 03:12 21.00865 105.24140 10827 ft 304 kts 160°
2026-04-28 03:13 20.98879 105.24876 10650 ft 300 kts 169°
2026-04-28 03:13 20.96867 105.25447 10304 ft 298 kts 170°
2026-04-28 03:13 20.94861 105.25999 9883 ft 298 kts 170°
2026-04-28 03:13 20.92856 105.26569 9398 ft 298 kts 169°
2026-04-28 03:14 20.90865 105.27156 8976 ft 296 kts 169°
2026-04-28 03:14 20.88897 105.27752 8584 ft 292 kts 168°
2026-04-28 03:14 20.86952 105.28346 8204 ft 289 kts 168°
2026-04-28 03:14 20.85030 105.28935 7777 ft 286 kts 168°
2026-04-28 03:15 20.83194 105.29690 7194 ft 287 kts 151°
2026-04-28 03:15 20.81704 105.31114 6620 ft 290 kts 137°
2026-04-28 03:15 20.80310 105.32667 6191 ft 288 kts 137°
2026-04-28 03:15 20.78937 105.34190 5997 ft 285 kts 137°
2026-04-28 03:16 20.77538 105.35728 5994 ft 288 kts 137°
2026-04-28 03:16 20.76153 105.37241 5972 ft 283 kts 137°
2026-04-28 03:16 20.74783 105.38732 5970 ft 280 kts 137°
2026-04-28 03:16 20.73419 105.40209 5988 ft 279 kts 137°
2026-04-28 03:17 20.72048 105.41693 6007 ft 281 kts 137°
2026-04-28 03:17 20.69619 105.44915 5992 ft 278 kts 112°
2026-04-28 03:17 20.69093 105.46939 6015 ft 289 kts 105°
2026-04-28 03:18 20.68610 105.49044 6026 ft 293 kts 105°
2026-04-28 03:18 20.68118 105.51149 5978 ft 290 kts 105°
2026-04-28 03:18 20.67624 105.53209 5982 ft 283 kts 105°
2026-04-28 03:18 20.67131 105.55242 6001 ft 284 kts 106°
2026-04-28 03:19 20.66631 105.57299 5985 ft 288 kts 106°
2026-04-28 03:19 20.66333 105.58668 5978 ft 284 kts 98°
2026-04-28 03:19 20.66785 105.61412 5983 ft 286 kts 60°
2026-04-28 03:19 20.68078 105.62986 5988 ft 282 kts 32°
2026-04-28 03:20 20.69852 105.63822 5998 ft 278 kts
2026-04-28 03:20 20.71106 105.63942 5998 ft 272 kts 356°
2026-04-28 03:20 20.73000 105.63916 5981 ft 273 kts 355°
2026-04-28 03:20 20.75522 105.63869 5989 ft 274 kts 354°
2026-04-28 03:21 20.76808 105.63848 5985 ft 274 kts 355°
2026-04-28 03:21 20.78714 105.63824 5977 ft 273 kts 355°
2026-04-28 03:21 20.81224 105.63802 5967 ft 271 kts 355°
2026-04-28 03:21 20.83108 105.63787 5975 ft 269 kts 355°
2026-04-28 03:22 20.84373 105.63777 5978 ft 269 kts 355°
2026-04-28 03:22 20.86241 105.63762 5979 ft 268 kts 355°
2026-04-28 03:22 20.88104 105.63747 5978 ft 268 kts 355°
2026-04-28 03:22 20.89972 105.63733 5978 ft 268 kts 355°
2026-04-28 03:23 20.91842 105.63719 5973 ft 269 kts 355°
2026-04-28 03:23 20.93709 105.63704 5974 ft 268 kts 355°
2026-04-28 03:23 20.95573 105.63690 5979 ft 268 kts 355°
2026-04-28 03:23 20.97409 105.63676 5978 ft 268 kts 355°
2026-04-28 03:24 20.99272 105.63662 5974 ft 266 kts 355°
2026-04-28 03:24 21.01090 105.63649 5965 ft 256 kts 355°
2026-04-28 03:24 21.02818 105.63547 5896 ft 243 kts 345°
2026-04-28 03:24 21.04434 105.63087 5806 ft 237 kts 338°
2026-04-28 03:25 21.05995 105.62554 5811 ft 237 kts 338°
2026-04-28 03:25 21.07576 105.62014 5820 ft 242 kts 339°
2026-04-28 03:25 21.09207 105.61471 5793 ft 248 kts 340°
2026-04-28 03:25 21.10867 105.60934 5770 ft 249 kts 340°
2026-04-28 03:26 21.12532 105.60403 5725 ft 250 kts 340°
2026-04-28 03:26 21.14200 105.59874 5688 ft 250 kts 341°
2026-04-28 03:26 21.15859 105.59349 5634 ft 244 kts 340°
2026-04-28 03:26 21.17292 105.58564 5545 ft 225 kts 313°
2026-04-28 03:27 21.18145 105.57233 5532 ft 216 kts 290°
2026-04-28 03:27 21.18640 105.55708 5521 ft 217 kts 285°
2026-04-28 03:27 21.19075 105.54159 5470 ft 217 kts 284°
2026-04-28 03:27 21.19507 105.52616 5438 ft 216 kts 284°
2026-04-28 03:28 21.19940 105.51075 5384 ft 216 kts 284°
2026-04-28 03:28 21.20370 105.49542 5344 ft 215 kts 284°
2026-04-28 03:28 21.20803 105.48014 5304 ft 214 kts 284°
2026-04-28 03:28 21.21318 105.46535 5194 ft 212 kts 302°
2026-04-28 03:29 21.22448 105.45592 4974 ft 208 kts 330°
2026-04-28 03:29 21.23735 105.44899 4810 ft 198 kts 328°
2026-04-28 03:29 21.24955 105.44201 4767 ft 202 kts 328°
2026-04-28 03:29 21.26182 105.43481 4720 ft 205 kts 327°
2026-04-28 03:30 21.27438 105.42736 4661 ft 206 kts 327°
2026-04-28 03:30 21.28685 105.41991 4600 ft 204 kts 327°
2026-04-28 03:30 21.29976 105.41418 4549 ft 205 kts 351°
2026-04-28 03:30 21.31379 105.41723 4492 ft 212 kts 30°
2026-04-28 03:31 21.32323 105.42891 4424 ft 210 kts 71°
2026-04-28 03:31 21.32358 105.44392 4372 ft 200 kts 107°
2026-04-28 03:31 21.31950 105.45825 4341 ft 202 kts 110°
2026-04-28 03:31 21.31521 105.47266 4265 ft 203 kts 110°
2026-04-28 03:32 21.31090 105.48707 4199 ft 203 kts 110°
2026-04-28 03:32 21.30667 105.50147 4152 ft 202 kts 110°
2026-04-28 03:32 21.30251 105.51580 4105 ft 201 kts 110°
2026-04-28 03:32 21.29841 105.53002 4053 ft 199 kts 110°
2026-04-28 03:33 21.29433 105.54422 3903 ft 199 kts 109°
2026-04-28 03:33 21.29030 105.55823 3696 ft 191 kts 109°
2026-04-28 03:33 21.28654 105.57135 3442 ft 177 kts 110°
2026-04-28 03:33 21.28303 105.58357 3240 ft 169 kts 110°
2026-04-28 03:34 21.27954 105.59567 3036 ft 169 kts 110°
2026-04-28 03:34 21.27609 105.60768 2821 ft 168 kts 110°
2026-04-28 03:34 21.27266 105.61961 2607 ft 166 kts 109°
2026-04-28 03:34 21.26928 105.63136 2448 ft 164 kts 109°
2026-04-28 03:35 21.26592 105.64307 2316 ft 164 kts 110°
2026-04-28 03:35 21.26252 105.65490 2158 ft 167 kts 110°
2026-04-28 03:35 21.25910 105.66676 2055 ft 165 kts 110°
2026-04-28 03:35 21.25572 105.67854 1893 ft 166 kts 110°
2026-04-28 03:36 21.25234 105.69025 1768 ft 160 kts 109°
2026-04-28 03:36 21.24922 105.70117 1620 ft 146 kts 110°
2026-04-28 03:36 21.24631 105.71126 1463 ft 138 kts 110°
2026-04-28 03:36 21.24352 105.72097 1270 ft 138 kts 111°
2026-04-28 03:37 21.24060 105.73107 1116 ft 143 kts 110°
2026-04-28 03:37 21.23767 105.74128 927 ft 142 kts 109°
2026-04-28 03:37 21.23477 105.75138 740 ft 141 kts 109°
2026-04-28 03:37 21.23189 105.76140 558 ft 142 kts 108°
2026-04-28 03:38 21.22895 105.77167 381 ft 144 kts 108°
2026-04-28 03:38 21.22602 105.78187 184 ft 142 kts 108°
2026-04-28 03:38 21.22310 105.79195 50 ft 127 kts 108°
2026-04-28 03:38 21.22109 105.79890 48 ft 65 kts 107°
2026-04-28 03:39 21.21970 105.80373 55 ft 62 kts 107°
2026-04-28 03:39 21.21895 105.80630 53 ft 31 kts 107°
2026-04-28 03:39 21.21814 105.80831 49 ft 30 kts 129°
2026-04-28 03:39 21.21728 105.80931 48 ft 0 kts 133°
2026-04-28 03:40 21.21720 105.80941 47 ft 1 kts 133°
2026-04-28 03:40 21.21705 105.80958 47 ft 5 kts 133°
2026-04-28 03:40 21.21678 105.80989 53 ft 7 kts 134°
2026-04-28 03:40 21.21647 105.81024 47 ft 6 kts 133°
2026-04-28 03:41 21.21612 105.81063 52 ft 9 kts 133°
2026-04-28 03:41 21.21578 105.81128 49 ft 12 kts 103°
2026-04-28 03:41 21.21561 105.81197 49 ft 9 kts 105°
2026-04-28 03:41 21.21543 105.81271 53 ft 12 kts 105°
2026-04-28 03:42 21.21512 105.81365 51 ft 15 kts 109°
2026-04-28 03:42 21.21483 105.81478 55 ft 16 kts 106°
2026-04-28 03:42 21.21447 105.81599 50 ft 19 kts 107°
2026-04-28 03:42 21.21407 105.81738 50 ft 17 kts 107°
2026-04-28 03:43 21.21337 105.81800 52 ft 13 kts 200°
2026-04-28 03:43 21.21316 105.81717 49 ft 14 kts 286°
2026-04-28 03:43 21.21346 105.81610 50 ft 16 kts 287°
2026-04-28 03:43 21.21384 105.81484 49 ft 19 kts 288°
2026-04-28 03:44 21.21416 105.81382 50 ft 7 kts 288°
2026-04-28 03:44 21.21435 105.81319 49 ft 11 kts 288°
2026-04-28 03:44 21.21459 105.81239 50 ft 7 kts 288°
2026-04-28 03:44 21.21464 105.81191 53 ft 5 kts 248°
2026-04-28 03:45 21.21431 105.81164 49 ft 7 kts 207°
2026-04-28 03:45 21.21416 105.81159 48 ft 0 kts 196°
2026-04-28 03:45 21.21410 105.81157 49 ft 2 kts 195°
2026-04-28 03:45 21.21398 105.81153 49 ft 2 kts 195°
2026-04-28 03:46 21.21392 105.81152 51 ft 0 kts 195°